Regional Weather Roundup
Issued by NWS

Home | Current Version | Previous Version | Graphics & Text | Print | Product List | Glossary On
Versions: 1 2 3 4 5 6 7 8 9 10 11 12 13 14 15 16 17 18 19 20 21 22 23 24 25 26 27 28 29 30 31 32 33 34 35 36 37 38 39 40 41 42 43 44 45 46 47 48 49 50
000
ASUS43 KFSD 020210
RWRSD

WEATHER ROUNDUP FOR SOUTH DAKOTA
NATIONAL WEATHER SERVICE SIOUX FALLS SD
900 PM CDT WED APR 01 2015

NOTE: "FAIR" INDICATES FEW OR NO CLOUDS BELOW 12,000 FEET WITH NO
SIGNIFICANT WEATHER AND/OR OBSTRUCTIONS TO VISIBILITY.


SDZ001>005-009-010-012>017-020300-
NORTHWEST AND NORTH CENTRAL SOUTH DAKOTA

CITY           SKY/WX    TMP DP  RH WIND       PRES   REMARKS
BUFFALO          N/A     44  11  26 NW15      29.74R
FAITH            N/A     46   8  21 NW12      29.78R
MOBRIDGE       MOCLDY    49  25  39 NW9       29.71R
$$

SDZ012>016-024>037-041>051-057-063-072>074-020300-
SOUTHWEST AND SOUTH CENTRAL SOUTH DAKOTA

CITY           SKY/WX    TMP DP  RH WIND       PRES   REMARKS
RAPID CTY ARPT PTCLDY    42  16  34 N9        29.83R
PIERRE         CLOUDY    51  23  33 NW9       29.76R
CUSTER         PTCLDY    38  11  32 NW5       29.85R
ELLSWORTH AFB  PTCLDY    45  13  28 NW12      29.82R
PHILIP         CLOUDY    53  11  18 NW8       29.81R
PINE RIDGE     CLOUDY    49  18  29 N18G25    29.85R
SPEARFISH      FAIR      41   9  26 W8        29.85S
WINNER         FAIR      55  21  26 NW17      29.75R
$$

SDZ004>011-016>023-039-040-020300-
NORTHEAST SOUTH DAKOTA

CITY           SKY/WX    TMP DP  RH WIND       PRES   REMARKS
ABERDEEN       PTCLDY    57  29  34 NW15      29.68R
WATERTOWN      PTCLDY    54  34  46 NW10      29.62R
BROOKINGS      PTCLDY    57  36  44 NW15      29.62R
SISSETON         N/A     57  31  37 NW25G32   29.57R
$$

SDZ017-020-022-023-036>040-048>070-020300-
SOUTHEAST SOUTH DAKOTA

CITY           SKY/WX    TMP DP  RH WIND       PRES   REMARKS
SIOUX FALLS    MOCLDY    63  34  33 NW20G31   29.62R
HURON          PTCLDY    58  26  29 NW22      29.66R
CHAMBERLAIN    PTCLDY    55  22  28 NW17G24   29.71S
MITCHELL       PTCLDY    59  29  31 NW15      29.66R
YANKTON        PTCLDY    64  37  36 NW23      29.62R
$$

ABBREVIATIONS USED IN REMARKS
   TC - TEMPERATURE IN CELSIUS
  WCI - WIND CHILL INDEX
   HX - HEAT INDEX
  VSB - VISIBILITY




USA.gov is the U.S. government's official web portal to all federal, state and local government web resources and services.